Time,TemperatureF,DewpointF,PressureIn,WindDirection,WindDirectionDegrees,WindSpeedMPH,WindSpeedGustMPH,Humidity,HourlyPrecipIn,Conditions,Clouds,dailyrainin,SoftwareType,DateUTC
2013-06-21 00:00:00,59.8,52.9,30.21,SSE,152,0.0,7.0,78,0.00,,,0.00,Wunderground v.1.15,2013-06-21 04:00:00,
2013-06-21 00:10:00,58.7,52.5,30.21,SSE,152,0.0,0.0,80,0.00,,,0.00,Wunderground v.1.15,2013-06-21 04:10:00,
2013-06-21 00:20:00,58.3,52.8,30.21,SSE,152,0.0,0.0,82,0.00,,,0.00,Wunderground v.1.15,2013-06-21 04:20:00,
2013-06-21 00:30:00,58.1,53.0,30.22,SSE,152,0.0,0.0,83,0.00,,,0.00,Wunderground v.1.15,2013-06-21 04:30:00,
2013-06-21 00:39:00,58.0,52.9,30.22,SSE,152,0.0,0.0,83,0.00,,,0.00,Wunderground v.1.15,2013-06-21 04:39:00,
2013-06-21 00:49:00,57.5,53.0,30.22,SSE,152,0.0,0.0,85,0.00,,,0.00,Wunderground v.1.15,2013-06-21 04:49:00,
2013-06-21 00:59:00,57.2,53.0,30.22,SSE,152,0.0,0.0,86,0.00,,,0.00,Wunderground v.1.15,2013-06-21 04:59:00,
2013-06-21 01:10:00,56.6,52.5,30.22,SSE,152,0.0,1.0,86,0.00,,,0.00,Wunderground v.1.15,2013-06-21 05:10:00,
2013-06-21 01:20:00,56.3,52.8,30.22,SSE,152,0.0,1.0,88,0.00,,,0.00,Wunderground v.1.15,2013-06-21 05:20:00,
2013-06-21 01:30:00,56.6,52.8,30.22,SSE,152,0.0,1.0,87,0.00,,,0.00,Wunderground v.1.15,2013-06-21 05:30:00,
2013-06-21 01:39:00,56.7,52.6,30.22,SSE,152,0.0,1.0,86,0.00,,,0.00,Wunderground v.1.15,2013-06-21 05:39:00,
2013-06-21 01:50:00,56.9,52.8,30.21,SSE,152,0.0,1.0,86,0.00,,,0.00,Wunderground v.1.15,2013-06-21 05:50:00,
2013-06-21 02:00:00,57.0,53.2,30.21,SSE,152,0.0,1.0,87,0.00,,,0.00,Wunderground v.1.15,2013-06-21 06:00:00,
2013-06-21 02:10:00,57.5,53.0,30.21,SSE,152,0.0,1.0,85,0.00,,,0.00,Wunderground v.1.15,2013-06-21 06:10:00,
2013-06-21 02:29:00,56.9,53.1,30.21,SSE,152,0.0,1.0,87,0.00,,,0.00,Wunderground v.1.15,2013-06-21 06:29:00,
2013-06-21 02:40:00,57.6,53.8,30.21,SSE,152,0.0,1.0,87,0.00,,,0.00,Wunderground v.1.15,2013-06-21 06:40:00,
2013-06-21 02:49:00,59.5,54.3,30.20,SE,131,0.0,1.0,83,0.00,,,0.00,Wunderground v.1.15,2013-06-21 06:49:00,
2013-06-21 03:00:00,60.4,53.9,30.20,ENE,74,0.0,1.0,79,0.00,,,0.00,Wunderground v.1.15,2013-06-21 07:00:00,
2013-06-21 03:10:00,61.0,54.4,30.19,SSE,156,0.0,1.0,79,0.00,,,0.00,Wunderground v.1.15,2013-06-21 07:10:00,
2013-06-21 03:20:00,61.0,54.1,30.19,SE,138,0.0,1.0,78,0.00,,,0.00,Wunderground v.1.15,2013-06-21 07:20:00,
2013-06-21 03:30:00,59.8,54.0,30.19,East,92,0.0,1.0,81,0.00,,,0.00,Wunderground v.1.15,2013-06-21 07:30:00,
2013-06-21 03:40:00,58.7,53.5,30.19,SSE,152,0.0,1.0,83,0.00,,,0.00,Wunderground v.1.15,2013-06-21 07:40:00,
2013-06-21 03:50:00,57.6,53.1,30.19,SSE,152,0.0,1.0,85,0.00,,,0.00,Wunderground v.1.15,2013-06-21 07:50:00,
2013-06-21 04:00:00,57.0,53.5,30.20,SSE,152,0.0,1.0,88,0.00,,,0.00,Wunderground v.1.15,2013-06-21 08:00:00,
2013-06-21 04:10:00,56.5,53.0,30.20,SSE,152,0.0,1.0,88,0.00,,,0.00,Wunderground v.1.15,2013-06-21 08:10:00,
2013-06-21 04:20:00,56.0,53.1,30.20,SSE,152,0.0,1.0,90,0.00,,,0.00,Wunderground v.1.15,2013-06-21 08:20:00,
2013-06-21 04:30:00,56.3,53.7,30.20,SSE,152,0.0,1.0,91,0.00,,,0.00,Wunderground v.1.15,2013-06-21 08:30:00,
2013-06-21 04:40:00,56.2,53.6,30.21,SSE,152,0.0,1.0,91,0.00,,,0.00,Wunderground v.1.15,2013-06-21 08:40:00,
2013-06-21 04:50:00,56.0,53.4,30.21,SSE,152,0.0,1.0,91,0.00,,,0.00,Wunderground v.1.15,2013-06-21 08:50:00,
2013-06-21 04:59:00,55.9,53.6,30.21,SSE,152,0.0,1.0,92,0.00,,,0.00,Wunderground v.1.15,2013-06-21 08:59:00,
2013-06-21 05:10:00,55.6,53.0,30.22,SSE,152,0.0,1.0,91,0.00,,,0.00,Wunderground v.1.15,2013-06-21 09:10:00,
2013-06-21 05:19:00,55.0,53.0,30.23,SSE,152,0.0,1.0,93,0.00,,,0.00,Wunderground v.1.15,2013-06-21 09:19:00,
2013-06-21 05:30:00,54.8,53.1,30.23,SSE,152,0.0,1.0,94,0.00,,,0.00,Wunderground v.1.15,2013-06-21 09:30:00,
2013-06-21 05:40:00,54.8,53.1,30.24,SSE,152,0.0,1.0,94,0.00,,,0.00,Wunderground v.1.15,2013-06-21 09:40:00,
2013-06-21 05:49:00,54.8,53.4,30.24,SSE,152,0.0,1.0,95,0.00,,,0.00,Wunderground v.1.15,2013-06-21 09:49:00,
2013-06-21 06:00:00,55.7,54.0,30.24,SSE,152,0.0,1.0,94,0.00,,,0.00,Wunderground v.1.15,2013-06-21 10:00:00,
2013-06-21 06:09:00,56.0,54.3,30.24,SSE,152,0.0,0.0,94,0.00,,,0.00,Wunderground v.1.15,2013-06-21 10:09:00,
2013-06-21 06:20:00,56.7,54.7,30.24,SSE,152,0.0,0.0,93,0.00,,,0.00,Wunderground v.1.15,2013-06-21 10:20:00,
2013-06-21 06:30:00,57.2,54.6,30.24,SSE,152,0.0,0.0,91,0.00,,,0.00,Wunderground v.1.15,2013-06-21 10:30:00,
2013-06-21 06:40:00,57.3,54.7,30.24,SSE,152,0.0,0.0,91,0.00,,,0.00,Wunderground v.1.15,2013-06-21 10:40:00,
2013-06-21 06:50:00,55.7,52.8,30.24,SSE,152,0.0,0.0,90,0.00,,,0.00,Wunderground v.1.15,2013-06-21 10:50:00,
2013-06-21 07:00:00,54.8,52.8,30.24,SSE,152,0.0,0.0,93,0.00,,,0.00,Wunderground v.1.15,2013-06-21 11:00:00,
2013-06-21 07:10:00,55.7,54.6,30.25,SSE,152,0.0,3.0,96,0.00,,,0.00,Wunderground v.1.15,2013-06-21 11:10:00,
2013-06-21 07:20:00,56.7,55.9,30.25,SSE,152,0.0,3.0,97,0.00,,,0.00,Wunderground v.1.15,2013-06-21 11:20:00,
2013-06-21 07:29:00,57.0,55.6,30.25,SSE,152,0.0,3.0,95,0.00,,,0.00,Wunderground v.1.15,2013-06-21 11:29:00,
2013-06-21 07:40:00,58.4,56.7,30.25,SSE,152,0.0,3.0,94,0.00,,,0.00,Wunderground v.1.15,2013-06-21 11:40:00,
2013-06-21 07:50:00,59.8,56.6,30.25,ESE,121,1.0,1.0,89,0.00,,,0.00,Wunderground v.1.15,2013-06-21 11:50:00,
2013-06-21 08:00:00,61.5,57.3,30.25,SE,135,0.0,3.0,86,0.00,,,0.00,Wunderground v.1.15,2013-06-21 12:00:00,
2013-06-21 08:10:00,62.9,57.3,30.25,East,97,1.0,1.0,82,0.00,,,0.00,Wunderground v.1.15,2013-06-21 12:10:00,
2013-06-21 08:19:00,64.0,57.4,30.25,East,97,0.0,3.0,79,0.00,,,0.00,Wunderground v.1.15,2013-06-21 12:19:00,
2013-06-21 08:30:00,65.3,58.6,30.25,South,179,0.0,3.0,79,0.00,,,0.00,Wunderground v.1.15,2013-06-21 12:30:00,
2013-06-21 08:40:00,66.1,58.7,30.25,SSW,204,0.0,3.0,77,0.00,,,0.00,Wunderground v.1.15,2013-06-21 12:40:00,
2013-06-21 08:50:00,67.4,59.2,30.24,SSW,196,0.0,3.0,75,0.00,,,0.00,Wunderground v.1.15,2013-06-21 12:50:00,
2013-06-21 09:00:00,67.6,58.6,30.24,SSW,196,0.0,3.0,73,0.00,,,0.00,Wunderground v.1.15,2013-06-21 13:00:00,
2013-06-21 09:10:00,68.3,57.7,30.25,SW,227,0.0,3.0,69,0.00,,,0.00,Wunderground v.1.15,2013-06-21 13:10:00,
2013-06-21 09:20:00,68.8,57.8,30.25,SSW,210,0.0,3.0,68,0.00,,,0.00,Wunderground v.1.15,2013-06-21 13:20:00,
2013-06-21 09:30:00,69.6,56.9,30.25,SSW,210,0.0,3.0,64,0.00,,,0.00,Wunderground v.1.15,2013-06-21 13:30:00,
2013-06-21 09:40:00,69.9,54.0,30.25,SSW,210,0.0,3.0,57,0.00,,,0.00,Wunderground v.1.15,2013-06-21 13:40:00,
2013-06-21 09:50:00,70.8,54.8,30.25,SSW,210,0.0,3.0,57,0.00,,,0.00,Wunderground v.1.15,2013-06-21 13:50:00,
2013-06-21 10:00:00,71.3,53.8,30.25,SSW,206,0.0,3.0,54,0.00,,,0.00,Wunderground v.1.15,2013-06-21 14:00:00,
2013-06-21 10:09:00,71.3,53.3,30.25,South,183,0.0,3.0,53,0.00,,,0.00,Wunderground v.1.15,2013-06-21 14:09:00,
2013-06-21 10:20:00,71.5,52.9,30.25,SE,137,0.0,3.0,52,0.00,,,0.00,Wunderground v.1.15,2013-06-21 14:20:00,
2013-06-21 10:30:00,72.1,56.5,30.25,South,184,0.0,3.0,58,0.00,,,0.00,Wunderground v.1.15,2013-06-21 14:30:00,
2013-06-21 10:40:00,72.8,55.7,30.25,ESE,121,0.0,3.0,55,0.00,,,0.00,Wunderground v.1.15,2013-06-21 14:40:00,
2013-06-21 10:50:00,73.0,53.8,30.25,SSE,155,0.0,3.0,51,0.00,,,0.00,Wunderground v.1.15,2013-06-21 14:50:00,
2013-06-21 11:00:00,73.3,57.6,30.25,South,191,0.0,3.0,58,0.00,,,0.00,Wunderground v.1.15,2013-06-21 15:00:00,
2013-06-21 11:20:00,73.2,54.0,30.25,East,92,0.0,3.0,51,0.00,,,0.00,Wunderground v.1.15,2013-06-21 15:20:00,
2013-06-21 11:30:00,74.0,55.3,30.25,ESE,121,0.0,3.0,52,0.00,,,0.00,Wunderground v.1.15,2013-06-21 15:30:00,
2013-06-21 11:40:00,74.2,53.2,30.25,North,352,0.0,3.0,48,0.00,,,0.00,Wunderground v.1.15,2013-06-21 15:40:00,
2013-06-21 11:49:00,73.7,56.0,30.26,West,272,1.0,3.0,54,0.00,,,0.00,Wunderground v.1.15,2013-06-21 15:49:00,
2013-06-21 12:00:00,74.0,58.3,30.26,WSW,258,0.0,3.0,58,0.00,,,0.00,Wunderground v.1.15,2013-06-21 16:00:00,
2013-06-21 12:10:00,74.4,55.1,30.26,NW,305,1.0,1.0,51,0.00,,,0.00,Wunderground v.1.15,2013-06-21 16:10:00,
2013-06-21 12:20:00,74.9,55.6,30.25,West,269,0.0,0.0,51,0.00,,,0.00,Wunderground v.1.15,2013-06-21 16:20:00,
2013-06-21 12:30:00,75.8,54.7,30.25,ESE,121,1.0,1.0,48,0.00,,,0.00,Wunderground v.1.15,2013-06-21 16:30:00,
2013-06-21 12:39:00,76.5,54.8,30.25,SW,218,0.0,0.0,47,0.00,,,0.00,Wunderground v.1.15,2013-06-21 16:39:00,
2013-06-21 12:50:00,77.0,54.6,30.25,SSE,158,0.0,0.0,46,0.00,,,0.00,Wunderground v.1.15,2013-06-21 16:50:00,
2013-06-21 13:00:00,77.0,51.5,30.25,West,274,0.0,0.0,41,0.00,,,0.00,Wunderground v.1.15,2013-06-21 17:00:00,
2013-06-21 13:20:00,77.0,53.4,30.24,ESE,121,1.0,1.0,44,0.00,,,0.00,Wunderground v.1.15,2013-06-21 17:20:00,
2013-06-21 13:29:00,77.7,51.5,30.24,West,261,1.0,4.0,40,0.00,,,0.00,Wunderground v.1.15,2013-06-21 17:29:00,
2013-06-21 13:40:00,77.6,54.6,30.24,SE,140,0.0,4.0,45,0.00,,,0.00,Wunderground v.1.15,2013-06-21 17:40:00,
2013-06-21 13:50:00,78.5,51.5,30.23,WSW,255,0.0,4.0,39,0.00,,,0.00,Wunderground v.1.15,2013-06-21 17:50:00,
2013-06-21 14:00:00,78.1,50.4,30.23,WSW,239,0.0,4.0,38,0.00,,,0.00,Wunderground v.1.15,2013-06-21 18:00:00,
2013-06-21 14:10:00,78.8,53.8,30.23,WSW,237,0.0,4.0,42,0.00,,,0.00,Wunderground v.1.15,2013-06-21 18:10:00,
2013-06-21 14:20:00,78.3,49.9,30.23,North,4,0.0,4.0,37,0.00,,,0.00,Wunderground v.1.15,2013-06-21 18:20:00,
2013-06-21 14:29:00,78.6,49.4,30.23,SE,131,0.0,4.0,36,0.00,,,0.00,Wunderground v.1.15,2013-06-21 18:29:00,
2013-06-21 14:50:00,79.6,57.0,30.23,South,181,0.0,4.0,46,0.00,,,0.00,Wunderground v.1.15,2013-06-21 18:50:00,
2013-06-21 15:00:00,79.2,49.9,30.23,South,181,0.0,4.0,36,0.00,,,0.00,Wunderground v.1.15,2013-06-21 19:00:00,
2013-06-21 15:09:00,79.4,57.4,30.23,West,264,0.0,4.0,47,0.00,,,0.00,Wunderground v.1.15,2013-06-21 19:09:00,
2013-06-21 15:20:00,79.2,54.1,30.23,South,189,1.0,4.0,42,0.00,,,0.00,Wunderground v.1.15,2013-06-21 19:20:00,
2013-06-21 15:30:00,79.4,56.8,30.23,WSW,249,0.0,4.0,46,0.00,,,0.00,Wunderground v.1.15,2013-06-21 19:30:00,
2013-06-21 15:40:00,79.4,50.9,30.23,West,263,1.0,1.0,37,0.00,,,0.00,Wunderground v.1.15,2013-06-21 19:40:00,
2013-06-21 15:49:00,79.0,51.2,30.22,West,272,1.0,1.0,38,0.00,,,0.00,Wunderground v.1.15,2013-06-21 19:49:00,
2013-06-21 16:00:00,79.6,51.0,30.22,WSW,254,0.0,4.0,37,0.00,,,0.00,Wunderground v.1.15,2013-06-21 20:00:00,
2013-06-21 16:10:00,79.4,52.3,30.22,ESE,115,0.0,4.0,39,0.00,,,0.00,Wunderground v.1.15,2013-06-21 20:10:00,
2013-06-21 16:20:00,79.9,57.9,30.22,South,178,0.0,4.0,47,0.00,,,0.00,Wunderground v.1.15,2013-06-21 20:20:00,
2013-06-21 16:29:00,80.3,55.8,30.22,South,175,0.0,4.0,43,0.00,,,0.00,Wunderground v.1.15,2013-06-21 20:29:00,
2013-06-21 16:39:00,79.9,54.1,30.21,South,175,0.0,4.0,41,0.00,,,0.00,Wunderground v.1.15,2013-06-21 20:39:00,
2013-06-21 16:50:00,79.9,52.7,30.21,South,175,0.0,4.0,39,0.00,,,0.00,Wunderground v.1.15,2013-06-21 20:50:00,
2013-06-21 17:00:00,79.9,54.1,30.20,WSW,239,0.0,4.0,41,0.00,,,0.00,Wunderground v.1.15,2013-06-21 21:00:00,
2013-06-21 17:09:00,80.1,54.3,30.20,WSW,239,0.0,4.0,41,0.00,,,0.00,Wunderground v.1.15,2013-06-21 21:09:00,
2013-06-21 17:20:00,79.8,56.6,30.20,SE,144,1.0,1.0,45,0.00,,,0.00,Wunderground v.1.15,2013-06-21 21:20:00,
2013-06-21 17:30:00,79.9,54.8,30.20,SE,144,0.0,4.0,42,0.00,,,0.00,Wunderground v.1.15,2013-06-21 21:30:00,
2013-06-21 17:40:00,80.5,52.6,30.20,SE,144,0.0,4.0,38,0.00,,,0.00,Wunderground v.1.15,2013-06-21 21:40:00,
2013-06-21 17:50:00,81.2,57.2,30.20,SE,145,0.0,4.0,44,0.00,,,0.00,Wunderground v.1.15,2013-06-21 21:50:00,
2013-06-21 18:00:00,80.7,52.0,30.20,SE,145,0.0,4.0,37,0.00,,,0.00,Wunderground v.1.15,2013-06-21 22:00:00,
2013-06-21 18:09:00,79.9,51.3,30.20,SSE,162,0.0,0.0,37,0.00,,,0.00,Wunderground v.1.15,2013-06-21 22:09:00,
2013-06-21 18:20:00,78.8,51.7,30.20,SSE,162,0.0,0.0,39,0.00,,,0.00,Wunderground v.1.15,2013-06-21 22:20:00,
2013-06-21 18:30:00,79.2,54.1,30.20,SSE,162,0.0,0.0,42,0.00,,,0.00,Wunderground v.1.15,2013-06-21 22:30:00,
2013-06-21 18:40:00,78.6,56.1,30.20,SSE,162,0.0,0.0,46,0.00,,,0.00,Wunderground v.1.15,2013-06-21 22:40:00,
2013-06-21 18:50:00,77.4,56.7,30.20,SSE,162,0.0,0.0,49,0.00,,,0.00,Wunderground v.1.15,2013-06-21 22:50:00,
2013-06-21 19:00:00,76.5,57.6,30.20,SSE,162,0.0,0.0,52,0.00,,,0.00,Wunderground v.1.15,2013-06-21 23:00:00,
2013-06-21 19:10:00,76.0,56.0,30.20,SSE,162,0.0,0.0,50,0.00,,,0.00,Wunderground v.1.15,2013-06-21 23:10:00,
2013-06-21 19:20:00,75.4,56.0,30.20,SSE,162,0.0,0.0,51,0.00,,,0.00,Wunderground v.1.15,2013-06-21 23:20:00,
2013-06-21 19:29:00,74.4,56.7,30.20,SSE,162,0.0,0.0,54,0.00,,,0.00,Wunderground v.1.15,2013-06-21 23:29:00,
2013-06-21 19:40:00,73.3,56.7,30.20,SSE,162,0.0,0.0,56,0.00,,,0.00,Wunderground v.1.15,2013-06-21 23:40:00,
2013-06-21 19:50:00,72.5,56.9,30.20,SSE,162,0.0,0.0,58,0.00,,,0.00,Wunderground v.1.15,2013-06-21 23:50:00,
2013-06-21 19:59:00,71.6,56.5,30.20,SSE,162,0.0,0.0,59,0.00,,,0.00,Wunderground v.1.15,2013-06-21 23:59:00,
2013-06-21 20:10:00,70.8,55.8,30.20,SSE,162,0.0,0.0,59,0.00,,,0.00,Wunderground v.1.15,2013-06-22 00:10:00,
2013-06-21 20:20:00,70.4,55.4,30.20,East,85,0.0,0.0,59,0.00,,,0.00,Wunderground v.1.15,2013-06-22 00:20:00,
2013-06-21 20:30:00,70.1,54.6,30.20,East,85,0.0,0.0,58,0.00,,,0.00,Wunderground v.1.15,2013-06-22 00:30:00,
2013-06-21 20:39:00,69.8,54.4,30.19,East,85,0.0,0.0,58,0.00,,,0.00,Wunderground v.1.15,2013-06-22 00:39:00,
2013-06-21 20:50:00,69.1,54.6,30.19,East,85,0.0,0.0,60,0.00,,,0.00,Wunderground v.1.15,2013-06-22 00:50:00,
2013-06-21 21:00:00,67.8,56.0,30.19,East,85,0.0,0.0,66,0.00,,,0.00,Wunderground v.1.15,2013-06-22 01:00:00,
2013-06-21 21:10:00,66.8,55.1,30.19,East,85,0.0,0.0,66,0.00,,,0.00,Wunderground v.1.15,2013-06-22 01:10:00,
2013-06-21 21:19:00,66.1,53.6,30.20,East,85,0.0,0.0,64,0.00,,,0.00,Wunderground v.1.15,2013-06-22 01:19:00,
2013-06-21 21:29:00,65.5,53.4,30.20,East,85,0.0,0.0,65,0.00,,,0.00,Wunderground v.1.15,2013-06-22 01:29:00,
2013-06-21 21:40:00,64.8,54.4,30.20,East,85,0.0,0.0,69,0.00,,,0.00,Wunderground v.1.15,2013-06-22 01:40:00,
2013-06-21 21:50:00,64.3,54.3,30.20,East,85,0.0,0.0,70,0.00,,,0.00,Wunderground v.1.15,2013-06-22 01:50:00,
2013-06-21 22:00:00,64.2,54.6,30.20,East,88,0.0,0.0,71,0.00,,,0.00,Wunderground v.1.15,2013-06-22 02:00:00,
2013-06-21 22:10:00,63.5,54.3,30.20,NNE,25,0.0,0.0,72,0.00,,,0.00,Wunderground v.1.15,2013-06-22 02:10:00,
2013-06-21 22:19:00,62.7,53.9,30.20,NNE,25,0.0,0.0,73,0.00,,,0.00,Wunderground v.1.15,2013-06-22 02:19:00,
2013-06-21 22:30:00,62.1,54.1,30.20,NNE,25,0.0,0.0,75,0.00,,,0.00,Wunderground v.1.15,2013-06-22 02:30:00,
2013-06-21 22:40:00,62.1,54.4,30.20,NNE,25,0.0,0.0,76,0.00,,,0.00,Wunderground v.1.15,2013-06-22 02:40:00,
2013-06-21 22:50:00,62.4,53.6,30.20,NE,44,0.0,0.0,73,0.00,,,0.00,Wunderground v.1.15,2013-06-22 02:50:00,
2013-06-21 23:00:00,63.4,54.2,30.19,NE,52,0.0,0.0,72,0.00,,,0.00,Wunderground v.1.15,2013-06-22 03:00:00,
2013-06-21 23:10:00,62.3,54.3,30.19,NE,52,0.0,0.0,75,0.00,,,0.00,Wunderground v.1.15,2013-06-22 03:10:00,
2013-06-21 23:20:00,61.5,53.5,30.20,NE,52,0.0,0.0,75,0.00,,,0.00,Wunderground v.1.15,2013-06-22 03:20:00,
2013-06-21 23:30:00,60.9,53.6,30.20,NE,52,0.0,0.0,77,0.00,,,0.00,Wunderground v.1.15,2013-06-22 03:30:00,
2013-06-21 23:40:00,60.5,53.6,30.19,NE,52,0.0,0.0,78,0.00,,,0.00,Wunderground v.1.15,2013-06-22 03:40:00,
2013-06-21 23:49:00,60.7,53.4,30.20,NE,52,0.0,0.0,77,0.00,,,0.00,Wunderground v.1.15,2013-06-22 03:49:00,